Home > Weather > Taiyuan > Past weeks

Flag for China Past Weather in Taiyuan, Shanxi, China — Yesterday and Last 2 Weeks

Now
91 °F

Passing clouds.


Feels Like: 100 °F
Forecast: 73 / 87 °F
Wind: 3 mph from Southeast

Location: Taiyuan Airport

Current Time: Jul 24, 2016 at 2:54:22 PM

Latest Report: Jul 24, 2016 at 2:00 PM


Visibility: N/A

Pressure: 29.71 "Hg (27.20 "Hg at 790m altitude)

Humidity: 56%

Dew Point: 73 °F

Location of TaiyuanLocation

Past Weather in Taiyuan — Graph

°F

Taiyuan Temperature Yesterday

Maximum temperature yesterday: 90 °F (at 3:00 PM)
Minimum temperature yesterday: 72 °F (at 4:30 AM)
Average temperature yesterday: 80 °F

High & Low Weather Summary for the Past Weeks

 TemperatureHumidityPressure
High91 °F (Jul 24, 1:30 PM)100% (Jul 19, 2:00 AM)29.86 "Hg (Jul 19, 2:00 AM)
Low63 °F (Jul 15, 2:30 AM)35% (Jul 12, 3:00 PM)29.56 "Hg (Jul 20, 3:00 PM)
Average74 °F78%29.72 "Hg
* Reported Jul 9 1:00 PM — Jul 24 1:30 PM, Taiyuan, Weather by CustomWeather, © 2016

Note: Actual official high and low records may vary slightly from our data, if they occured in-between our weather recording intervals... More about our weather records

Advertising

Taiyuan Weather History for the Previous 24 Hours

Scroll right to see more
 ConditionsComfort  
Time TempWeatherWind HumidityBarometerVisibility
1:30 PM
Sun, Jul 24
91 °FPassing clouds.1 mph52%29.74 "HgN/A
1:00 PM90 °FPassing clouds.1 mph55%29.74 "Hg5 mi
12:30 PM90 °FPassing clouds.3 mph55%29.74 "Hg5 mi
12:00 PM88 °FClear.1 mph59%29.74 "Hg5 mi
11:30 AM88 °FSunny.1 mph62%29.74 "Hg10 mi
11:00 AM88 °FSunny.1 mph59%29.77 "Hg10 mi
10:30 AM86 °FSunny.3 mph62%29.77 "Hg10 mi
10:00 AM86 °FSunny.1 mph62%29.77 "Hg10 mi
9:30 AM84 °FSunny.1 mph70%29.77 "Hg10 mi
9:00 AM82 °FSunny.1 mph70%29.77 "Hg10 mi
8:30 AM81 °FClear.1 mph74%29.77 "Hg4 mi
8:00 AM79 °FClear.1 mph79%29.80 "Hg4 mi
7:30 AM77 °FClear.1 mph79%29.77 "Hg4 mi
7:00 AM75 °FFog.1 mph83%29.77 "Hg3 mi
6:30 AM75 °FClear.1 mph83%29.77 "Hg4 mi
6:00 AM75 °FClear.3 mph78%29.77 "Hg4 mi
5:30 AM73 °FClear.1 mph89%29.77 "Hg4 mi
5:00 AM73 °FClear.1 mph89%29.77 "Hg4 mi
4:30 AM73 °FClear.1 mph89%29.77 "Hg4 mi
4:00 AM73 °FClear.1 mph89%29.74 "Hg4 mi
3:30 AM73 °FClear.1 mph83%29.77 "Hg4 mi
3:00 AM75 °FClear.1 mph78%29.77 "Hg5 mi
2:30 AM73 °FClear.3 mph89%29.77 "Hg5 mi
2:00 AM75 °FClear.1 mph83%29.74 "Hg5 mi
1:30 AM75 °FClear.1 mph83%29.77 "Hg5 mi
1:00 AM75 °FClear.1 mph83%29.77 "Hg5 mi
12:30 AM75 °FClear.1 mph83%29.77 "Hg5 mi
12:00 AM75 °FClear.1 mph83%29.77 "Hg5 mi
11:30 PM
Sat, Jul 23
77 °FClear.1 mph79%29.77 "Hg5 mi
11:00 PM77 °FClear.3 mph83%29.74 "Hg5 mi
10:30 PM79 °FClear.3 mph79%29.74 "Hg5 mi
10:00 PM79 °FClear.1 mph84%29.74 "Hg4 mi
9:30 PM81 °FClear.3 mph79%29.74 "Hg4 mi
9:00 PM79 °FClear.1 mph84%29.74 "Hg10 mi
8:30 PM81 °FClear.1 mph79%29.71 "Hg10 mi
8:00 PM81 °FClear.1 mph79%29.71 "Hg10 mi
7:30 PM82 °FSunny.1 mph74%29.71 "Hg10 mi
7:00 PM86 °FSunny.1 mph62%29.68 "Hg10 mi
6:30 PM88 °FSunny.1 mph59%29.68 "Hg10 mi
6:00 PM88 °FPassing clouds.3 mph59%29.68 "HgN/A
5:30 PM88 °FPassing clouds.3 mph59%29.68 "HgN/A
5:00 PM88 °FPassing clouds.6 mph55%29.68 "HgN/A
4:30 PM88 °FPassing clouds.6 mph55%29.68 "HgN/A
4:00 PM88 °FPassing clouds.6 mph55%29.68 "HgN/A
3:30 PM90 °FPassing clouds.6 mph52%29.68 "HgN/A
3:00 PM90 °FPassing clouds.3 mph49%29.68 "HgN/A
2:30 PM88 °FPassing clouds.6 mph55%29.71 "HgN/A
2:00 PM88 °FPassing clouds.6 mph52%29.71 "HgN/A
Weather by CustomWeather, © 2016

See weather overviewHow to use our weather pages